CW0927 Weather Reports


Display with metric or nautical units.
time (UTC)temp
F
wind
direction
speed
MPH
gust
MPH
rain 1hr
in
rain 24hr
in
rain mn
in
humidity
%
barometer
mb
20260503032349 70 333 0.0 4.0 0.00 0.18 0.18 90 1015.3
20260503031829 70 339 1.0 4.0 0.00 0.18 0.18 90 1015.3
20260503031331 70 10 0.0 5.0 0.00 0.18 0.18 89 1015.2
20260503030832 70 13 1.0 5.0 0.00 0.18 0.18 89 1015.0
20260503030335 70 360 0.0 6.0 0.00 0.18 0.18 89 1015.0
20260503025834 71 355 1.0 6.0 0.00 0.18 0.18 89 1015.1
20260503025405 71 318 3.0 6.0 0.00 0.18 0.18 90 1015.2
20260503024839 72 313 1.0 4.0 0.00 0.18 0.18 90 1014.8
20260503024340 72 247 1.0 4.0 0.00 0.18 0.18 90 1014.6
20260503023911 72 263 1.0 7.0 0.00 0.18 0.18 90 1014.7
20260503023350 72 247 3.0 7.0 0.00 0.18 0.18 90 1014.6
20260503022849 72 247 0.0 4.0 0.00 0.18 0.18 90 1014.4
20260503022345 71 255 1.0 3.0 0.00 0.18 0.18 90 1014.4
20260503021826 71 261 0.0 6.0 0.00 0.18 0.18 90 1014.2
20260503021357 71 262 1.0 6.0 0.00 0.18 0.18 90 1014.2
20260503020836 71 257 1.0 3.0 0.00 0.18 0.18 90 1014.1
20260503020338 71 250 1.0 3.0 0.00 0.18 0.18 90 1014.0
20260503015838 71 256 1.0 4.0 0.00 0.18 0.18 90 1013.8
20260503015336 71 262 1.0 6.0 0.00 0.18 0.18 90 1013.5
20260503014838 71 259 1.0 6.0 0.00 0.18 0.18 90 1013.2
20260503014347 71 248 1.0 5.0 0.00 0.18 0.18 90 1013.2
20260503013846 71 252 1.0 2.0 0.00 0.18 0.18 90 1013.2
20260503013355 71 252 0.0 2.0 0.00 0.18 0.18 90 1013.3
20260503012833 71 249 0.0 2.0 0.00 0.18 0.18 90 1013.4
20260503012334 71 252 0.0 3.0 0.00 0.18 0.18 90 1013.2
20260503011835 71 254 0.0 2.0 0.00 0.18 0.18 90 1013.1
20260503011338 71 254 0.0 4.0 0.00 0.18 0.18 90 1013.1
20260503010840 71 254 1.0 4.0 0.00 0.18 0.18 90 1013.1
20260503010344 71 261 1.0 3.0 0.00 0.18 0.18 90 1013.1
20260503005825 71 250 0.0 4.0 0.00 0.18 0.18 90 1012.9
20260503005324 71 248 1.0 4.0 0.00 0.18 0.18 90 1013.0
20260503004850 71 252 1.0 4.0 0.00 0.18 0.18 90 1012.9
20260503004349 71 257 1.0 3.0 0.00 0.18 0.18 90 1012.7
20260503003852 71 242 0.0 2.0 0.00 0.18 0.18 90 1012.7
20260503003333 71 253 0.0 2.0 0.00 0.18 0.18 90 1012.8
20260503002834 71 250 0.0 2.0 0.00 0.18 0.18 90 1012.9
20260503002338 71 248 0.0 2.0 0.00 0.18 0.18 90 1012.9
20260503001840 71 236 0.0 1.0 0.00 0.18 0.18 90 1012.8
20260503001341 71 236 0.0 1.0 0.00 0.18 0.18 90 1012.6
20260503000841 71 190 0.0 0.0 0.00 0.18 0.18 90 1012.3
20260503000344 71 199 0.0 0.0 0.00 0.18 0.18 89 1012.3
20260502235910 71 198 0.0 0.0 0.00 0.18 0.18 89 1012.2
20260502235349 71 197 0.0 0.0 0.00 0.18 0.18 89 1012.3
20260502234831 71 197 0.0 0.0 0.00 0.18 0.18 89 1012.2
20260502234333 71 197 0.0 1.0 0.00 0.18 0.18 89 1012.2
20260502233835 71 198 0.0 2.0 0.00 0.18 0.18 90 1012.0
20260502233338 71 178 0.0 2.0 0.00 0.18 0.18 90 1012.1
20260502232909 71 262 0.0 1.0 0.00 0.18 0.18 90 1012.2
20260502232346 71 262 0.0 2.0 0.00 0.18 0.18 90 1012.4
20260502231825 71 266 0.0 5.0 0.00 0.18 0.18 90 1012.3
20260502231326 70 267 1.0 7.0 0.00 0.18 0.18 90 1012.3
20260502230911 70 244 1.0 7.0 0.00 0.18 0.18 90 1012.5
20260502230354 70 276 1.0 3.0 0.00 0.18 0.18 90 1012.6
20260502225902 70 248 1.0 5.0 0.00 0.18 0.18 90 1012.7
20260502225340 70 249 1.0 5.0 0.00 0.18 0.18 90 1012.6
20260502224841 70 168 2.0 5.0 0.01 0.18 0.18 90 1012.4
20260502224412 70 253 1.0 4.0 0.01 0.18 0.18 91 1012.4
20260502223852 70 283 1.0 5.0 0.01 0.18 0.18 91 1012.6
20260502223332 70 219 1.0 5.0 0.01 0.18 0.18 90 1012.2
20260502222833 70 198 2.0 6.0 0.01 0.18 0.18 90 1012.0
20260502222359 71 191 1.0 4.0 0.01 0.18 0.18 90 1011.7
20260502221841 71 249 2.0 4.0 0.01 0.18 0.18 90 1012.2
20260502221344 71 264 0.0 4.0 0.01 0.18 0.18 90 1011.4
20260502220846 71 290 0.0 4.0 0.01 0.18 0.18 90 1011.8
20260502220351 71 234 0.0 6.0 0.01 0.18 0.18 90 1011.4
20260502215852 71 257 2.0 6.0 0.01 0.18 0.18 90 1011.8
20260502215333 71 243 1.0 9.0 0.01 0.18 0.18 90 1011.8
20260502214834 71 223 3.0 9.0 0.00 0.17 0.17 90 1011.9
20260502214404 71 255 2.0 7.0 0.00 0.17 0.17 90 1012.1
20260502213824 71 220 2.0 9.0 0.00 0.17 0.17 90 1012.1
20260502213329 71 263 2.0 8.0 0.01 0.17 0.17 90 1012.0
20260502212830 71 262 2.0 7.0 0.02 0.17 0.17 91 1011.8
20260502212334 71 153 2.0 6.0 0.04 0.17 0.17 91 1011.8
20260502211833 71 251 1.0 5.0 0.06 0.17 0.17 91 1012.0
20260502211336 71 250 2.0 5.0 0.08 0.17 0.17 91 1012.0
20260502210906 71 265 1.0 5.0 0.09 0.17 0.17 91 1011.8
20260502210348 71 188 1.0 5.0 0.10 0.17 0.17 91 1011.3
20260502205849 71 157 0.0 4.0 0.10 0.17 0.17 91 1011.1
20260502205358 71 128 1.0 4.0 0.10 0.17 0.17 90 1011.0
20260502204837 70 150 0.0 2.0 0.10 0.17 0.17 90 1011.2
20260502204340 70 249 0.0 3.0 0.10 0.17 0.17 89 1011.1
20260502203841 70 252 1.0 6.0 0.10 0.17 0.17 89 1011.6
20260502203343 70 172 1.0 7.0 0.09 0.16 0.16 89 1011.7
20260502202847 70 204 2.0 10.0 0.09 0.15 0.15 88 1012.2
20260502202345 71 268 6.0 12.0 0.07 0.13 0.13 88 1012.7
20260502201846 71 267 6.0 15.0 0.05 0.11 0.11 87 1012.7
20260502201347 71 244 6.0 15.0 0.04 0.09 0.09 87 1013.0
20260502200827 71 325 4.0 14.0 0.02 0.07 0.07 86 1013.0
20260502200332 71 253 6.0 10.0 0.02 0.07 0.07 86 1013.2
20260502195831 71 225 4.0 9.0 0.02 0.07 0.07 86 1012.9
20260502195334 71 266 2.0 8.0 0.02 0.07 0.07 86 1012.9
20260502194845 71 261 3.0 8.0 0.02 0.07 0.07 86 1013.0
20260502194346 71 244 4.0 9.0 0.02 0.07 0.07 85 1013.1
20260502193822 71 289 3.0 9.0 0.02 0.07 0.07 86 1013.3
20260502193353 71 259 4.0 9.0 0.02 0.07 0.07 85 1013.0
20260502192825 71 304 4.0 14.0 0.01 0.06 0.06 85 1012.7
20260502192324 72 265 5.0 16.0 0.01 0.06 0.06 84 1012.7
20260502191823 72 292 6.0 18.0 0.01 0.06 0.06 83 1012.8
20260502191324 73 183 8.0 22.0 0.00 0.05 0.05 80 1013.2
20260502190824 73 296 9.0 22.0 0.00 0.05 0.05 79 1013.3
20260502190330 74 223 10.0 22.0 0.00 0.05 0.05 78 1013.6
20260502185830 76 276 9.0 23.0 0.00 0.05 0.05 77 1013.6
20260502185332 78 355 9.0 23.0 0.00 0.05 0.05 76 1013.6
20260502184833 79 257 4.0 10.0 0.00 0.05 0.05 81 1012.8
20260502184334 78 254 0.0 5.0 0.00 0.05 0.05 81 1012.3
20260502183834 78 257 1.0 6.0 0.01 0.05 0.05 81 1012.4
20260502183336 78 263 2.0 6.0 0.04 0.05 0.05 80 1012.3
20260502182836 78 248 0.0 3.0 0.04 0.05 0.05 81 1012.4
20260502182403 78 254 1.0 3.0 0.05 0.05 0.05 80 1012.3
20260502181845 78 248 2.0 8.0 0.05 0.05 0.05 80 1012.3
20260502181348 78 220 2.0 8.0 0.05 0.05 0.05 81 1012.4
20260502180851 78 238 0.0 5.0 0.05 0.05 0.05 81 1012.4
20260502180333 78 213 1.0 6.0 0.05 0.05 0.05 80 1012.2
20260502170332 87 254 3.0 13.0 0.00 0.00 0.00 63 1012.2
20260502164341 86 229 7.0 26.0 0.00 0.00 0.00 63 1012.2
20260502163842 86 261 6.0 26.0 0.00 0.00 0.00 64 1012.2
20260502163343 86 215 5.0 17.0 0.00 0.00 0.00 63 1012.3
20260502162844 86 264 4.0 19.0 0.00 0.00 0.00 63 1012.3
20260502162338 86 171 8.0 20.0 0.00 0.00 0.00 64 1012.2
20260502161839 86 274 6.0 12.0 0.00 0.00 0.00 63 1012.1
20260502161341 86 175 5.0 13.0 0.00 0.00 0.00 64 1012.1
20260502160823 86 225 5.0 16.0 0.00 0.00 0.00 64 1012.1
20260502160332 86 240 5.0 16.0 0.00 0.00 0.00 64 1012.3
20260502152339 83 282 5.0 13.0 0.00 0.00 0.00 66 1012.5
20260502151841 83 244 4.0 15.0 0.00 0.00 0.00 66 1012.6
20260502151323 83 205 6.0 15.0 0.00 0.00 0.00 65 1012.7
20260502150824 82 277 3.0 8.0 0.00 0.00 0.00 68 1012.8
20260502150351 81 98 1.0 9.0 0.00 0.00 0.00 69 1012.6
20260502130325 75 148 3.0 8.0 0.00 0.00 0.00 86 1012.3
20260502123346 74 202 1.0 6.0 0.00 0.00 0.00 92 1012.2
20260502122849 73 191 1.0 8.0 0.00 0.00 0.00 91 1012.1
20260502122349 73 174 2.0 8.0 0.00 0.00 0.00 92 1012.1
20260502121850 73 240 1.0 5.0 0.00 0.00 0.00 93 1012.1
20260502121331 73 221 2.0 6.0 0.00 0.00 0.00 93 1012.1
20260502120833 72 178 2.0 6.0 0.00 0.00 0.00 93 1012.0
20260502120403 72 159 1.0 6.0 0.00 0.00 0.00 93 1012.0
20260502115843 72 169 0.0 4.0 0.00 0.00 0.00 93 1012.0
20260502115344 72 139 2.0 4.0 0.00 0.00 0.00 93 1011.9
20260502114847 72 188 1.0 5.0 0.00 0.00 0.00 94 1011.9
20260502113841 71 150 1.0 4.0 0.00 0.00 0.00 93 1011.9
20260502113343 71 198 1.0 4.0 0.00 0.00 0.00 93 1011.9
20260502112844 71 172 0.0 4.0 0.00 0.00 0.00 93 1012.0
20260502112343 71 180 1.0 3.0 0.00 0.00 0.00 93 1011.9
20260502111824 71 159 0.0 2.0 0.00 0.00 0.00 93 1011.7
20260502111325 71 180 0.0 2.0 0.00 0.00 0.00 93 1011.8
20260502110828 71 154 1.0 2.0 0.00 0.00 0.00 93 1011.6
20260502110333 71 169 0.0 2.0 0.00 0.00 0.00 93 1011.4
20260502105831 71 169 0.0 2.0 0.00 0.00 0.00 93 1011.3
20260502105401 71 163 0.0 3.0 0.00 0.00 0.00 93 1011.3
20260502104841 71 160 1.0 3.0 0.00 0.00 0.00 93 1011.2
20260502104341 71 188 0.0 1.0 0.00 0.00 0.00 93 1011.2
20260502103843 71 188 0.0 0.0 0.00 0.00 0.00 93 1011.1
20260502103340 71 188 0.0 0.0 0.00 0.00 0.00 93 1010.9
20260502102842 71 188 0.0 1.0 0.00 0.00 0.00 93 1011.0
20260502102343 71 198 0.0 1.0 0.00 0.00 0.00 92 1011.1
20260502101843 70 246 0.0 0.0 0.00 0.00 0.00 92 1011.2
20260502101326 70 246 0.0 0.0 0.00 0.00 0.00 92 1011.2
20260502100857 70 246 0.0 0.0 0.00 0.00 0.00 92 1011.2
20260502100340 70 246 0.0 0.0 0.00 0.00 0.00 92 1011.2
20260502091337 71 246 0.0 0.0 0.00 0.00 0.00 91 1011.9
20260502090839 71 246 0.0 0.0 0.00 0.00 0.00 92 1011.9
20260502090324 71 246 0.0 0.0 0.00 0.00 0.00 92 1011.9
20260502071358 72 272 1.0 3.0 0.00 0.00 0.00 89 1012.2
20260502070846 72 261 2.0 4.0 0.00 0.00 0.00 89 1012.2
20260502070341 72 260 1.0 4.0 0.00 0.00 0.00 89 1012.1
20260502065844 72 258 1.0 3.0 0.00 0.00 0.00 89 1012.1
20260502065324 72 267 0.0 2.0 0.00 0.00 0.00 88 1012.3
20260502064825 72 267 1.0 3.0 0.00 0.00 0.00 88 1012.3
20260502064327 72 266 1.0 3.0 0.00 0.00 0.00 88 1012.3
20260502063832 72 257 0.0 2.0 0.00 0.00 0.00 88 1012.4
20260502063332 73 268 0.0 1.0 0.00 0.00 0.00 87 1012.5
20260502062833 73 271 0.0 3.0 0.00 0.00 0.00 87 1012.5
20260502062331 73 275 1.0 3.0 0.00 0.00 0.00 87 1012.7
20260502061859 73 256 1.0 4.0 0.00 0.00 0.00 86 1012.7
20260502061339 73 254 2.0 4.0 0.00 0.00 0.00 86 1012.7
20260502060840 74 251 1.0 3.0 0.00 0.00 0.00 85 1012.6
20260502060340 74 255 1.0 3.0 0.00 0.00 0.00 85 1012.7
20260502055838 74 246 1.0 4.0 0.00 0.00 0.00 84 1012.7
20260502055339 74 289 2.0 4.0 0.00 0.00 0.00 83 1012.8
20260502054841 74 261 1.0 3.0 0.00 0.00 0.00 83 1012.8
20260502054338 74 257 2.0 3.0 0.00 0.00 0.00 82 1012.7
20260502053841 74 257 1.0 5.0 0.00 0.00 0.00 82 1012.8
20260502053339 74 257 1.0 5.0 0.00 0.00 0.00 82 1012.9
20260502052842 74 240 2.0 5.0 0.00 0.00 0.00 81 1012.9
20260502052341 75 251 1.0 4.0 0.00 0.00 0.00 80 1012.9
20260502051843 75 252 1.0 4.0 0.00 0.00 0.00 80 1013.0
20260502051325 75 259 1.0 3.0 0.00 0.00 0.00 80 1013.1
20260502050852 75 253 1.0 3.0 0.00 0.00 0.00 79 1012.9
20260502050351 75 245 0.0 3.0 0.00 0.00 0.00 78 1012.9
20260502045832 75 245 0.0 3.0 0.00 0.00 0.00 78 1013.0
20260502045332 75 263 1.0 2.0 0.00 0.00 0.00 77 1013.0
20260502044834 75 271 0.0 3.0 0.00 0.00 0.00 77 1013.0
20260502044332 75 256 1.0 3.0 0.00 0.00 0.00 76 1012.9
20260502043903 76 250 1.0 2.0 0.00 0.00 0.00 76 1013.0
20260502043343 76 251 0.0 1.0 0.00 0.00 0.00 76 1012.9
20260502042845 76 251 0.0 1.0 0.00 0.00 0.00 75 1012.8
20260502042343 76 250 0.0 1.0 0.00 0.00 0.00 74 1012.9
20260502041844 76 250 0.0 1.0 0.00 0.00 0.00 73 1012.8
20260502041345 76 250 0.0 2.0 0.00 0.00 0.00 73 1012.9
20260502040847 77 250 1.0 2.0 0.00 0.00 0.00 73 1012.8
20260502040348 77 250 0.0 0.0 0.00 0.00 0.00 72 1012.7
20260502035833 77 250 0.0 0.0 0.00 0.00 0.00 71 1012.7
20260502035334 77 250 0.0 0.0 0.00 0.00 0.00 71 1012.7
20260502034901 77 250 0.0 0.0 0.00 0.00 0.00 70 1012.8
20260502034342 77 250 0.0 1.0 0.00 0.00 0.00 70 1012.7
20260502033827 78 250 0.0 1.0 0.00 0.00 0.00 70 1012.8
20260502033359 78 250 0.0 1.0 0.00 0.00 0.00 69 1012.9
20260502032838 78 250 0.0 1.0 0.00 0.00 0.00 69 1013.0